| time (UTC) | temp F | wind direction | speed MPH | gust MPH | rain 1hr in | rain 24hr in | rain mn in | humidity % | barometer mb |
| 20260904060516 | 72 | 265 | 1.0 | 6.0 | 0.00 | 0.00 | 0.00 | 18 | 1013.4 |
| 20260904060016 | 72 | 284 | 1.0 | 4.0 | 0.00 | 0.00 | 0.00 | 18 | 1013.4 |
| 20260904055516 | 73 | 284 | 1.0 | 5.0 | 0.00 | 0.00 | 0.00 | 17 | 1013.4 |
| 20260904055016 | 73 | 298 | 1.0 | 8.0 | 0.00 | 0.00 | 0.00 | 17 | 1013.3 |
| 20260904054516 | 73 | 257 | 1.0 | 7.0 | 0.00 | 0.00 | 0.00 | 17 | 1013.4 |
| 20260904054016 | 73 | 241 | 1.0 | 5.0 | 0.00 | 0.00 | 0.00 | 17 | 1013.3 |
| 20260904053516 | 74 | 272 | 2.0 | 7.0 | 0.00 | 0.00 | 0.00 | 17 | 1013.3 |
| 20260904053016 | 74 | 286 | 1.0 | 9.0 | 0.00 | 0.00 | 0.00 | 17 | 1013.2 |
| 20260904052516 | 74 | 250 | 1.0 | 6.0 | 0.00 | 0.00 | 0.00 | 17 | 1013.2 |
| 20260904052016 | 74 | 194 | 1.0 | 7.0 | 0.00 | 0.00 | 0.00 | 17 | 1013.2 |
| 20260904051516 | 74 | 224 | 2.0 | 7.0 | 0.00 | 0.00 | 0.00 | 17 | 1013.2 |
| 20260904051016 | 74 | 251 | 2.0 | 7.0 | 0.00 | 0.00 | 0.00 | 17 | 1013.1 |
| 20260904050517 | 74 | 220 | 2.0 | 5.0 | 0.00 | 0.00 | 0.00 | 17 | 1013.1 |
| 20260904050016 | 75 | 232 | 2.0 | 6.0 | 0.00 | 0.00 | 0.00 | 17 | 1013.1 |
| 20260904045516 | 75 | 221 | 2.0 | 8.0 | 0.00 | 0.00 | 0.00 | 17 | 1013.0 |
| 20260904045016 | 75 | 201 | 2.0 | 7.0 | 0.00 | 0.00 | 0.00 | 17 | 1013.1 |
| 20260904044516 | 75 | 196 | 2.0 | 8.0 | 0.00 | 0.00 | 0.00 | 17 | 1013.1 |
| 20260904044017 | 75 | 227 | 2.0 | 7.0 | 0.00 | 0.00 | 0.00 | 17 | 1013.1 |
| 20260904043516 | 75 | 223 | 2.0 | 7.0 | 0.00 | 0.00 | 0.00 | 17 | 1013.1 |
| 20260904043017 | 74 | 238 | 2.0 | 5.0 | 0.00 | 0.00 | 0.00 | 17 | 1013.1 |
| 20260904042516 | 74 | 241 | 1.0 | 11.0 | 0.00 | 0.00 | 0.00 | 17 | 1013.1 |
| 20260904042017 | 74 | 261 | 1.0 | 2.0 | 0.00 | 0.00 | 0.00 | 17 | 1013.1 |
| 20260904041517 | 74 | 261 | 0.0 | 4.0 | 0.00 | 0.00 | 0.00 | 17 | 1013.0 |
| 20260904041017 | 74 | 261 | 0.0 | 4.0 | 0.00 | 0.00 | 0.00 | 17 | 1013.1 |
| 20260904040517 | 74 | 261 | 0.0 | 5.0 | 0.00 | 0.00 | 0.00 | 17 | 1013.0 |
| 20260904040017 | 74 | 263 | 0.0 | 3.0 | 0.00 | 0.00 | 0.00 | 17 | 1013.0 |
| 20260904035517 | 74 | 263 | 0.0 | 3.0 | 0.00 | 0.00 | 0.00 | 17 | 1012.9 |
| 20260904035017 | 74 | 263 | 0.0 | 3.0 | 0.00 | 0.00 | 0.00 | 17 | 1012.7 |
| 20260904034517 | 74 | 263 | 0.0 | 5.0 | 0.00 | 0.00 | 0.00 | 17 | 1012.7 |
| 20260904034017 | 74 | 263 | 0.0 | 3.0 | 0.00 | 0.00 | 0.00 | 17 | 1012.6 |
| 20260904033517 | 74 | 263 | 0.0 | 4.0 | 0.00 | 0.00 | 0.00 | 17 | 1012.7 |
| 20260904033017 | 74 | 263 | 0.0 | 3.0 | 0.00 | 0.00 | 0.00 | 17 | 1012.7 |
| 20260904032517 | 74 | 263 | 0.0 | 0.0 | 0.00 | 0.00 | 0.00 | 17 | 1012.7 |
| 20260904032017 | 74 | 264 | 0.0 | 2.0 | 0.00 | 0.00 | 0.00 | 17 | 1012.7 |
| 20260904031517 | 74 | 263 | 0.0 | 1.0 | 0.00 | 0.00 | 0.00 | 18 | 1012.6 |
| 20260904031017 | 74 | 264 | 0.0 | 0.0 | 0.00 | 0.00 | 0.00 | 17 | 1012.6 |
| 20260904030517 | 75 | 264 | 0.0 | 0.0 | 0.00 | 0.00 | 0.00 | 16 | 1012.6 |
| 20260904030017 | 75 | 263 | 0.0 | 3.0 | 0.00 | 0.00 | 0.00 | 17 | 1012.5 |
| 20260904025517 | 75 | 264 | 0.0 | 4.0 | 0.00 | 0.00 | 0.00 | 16 | 1012.5 |
| 20260904025017 | 75 | 264 | 0.0 | 0.0 | 0.00 | 0.00 | 0.00 | 16 | 1012.5 |
| 20260904024517 | 76 | 264 | 0.0 | 0.0 | 0.00 | 0.00 | 0.00 | 17 | 1012.5 |
| 20260904024017 | 76 | 264 | 1.0 | 3.0 | 0.00 | 0.00 | 0.00 | 16 | 1012.5 |
| 20260904023517 | 76 | 265 | 1.0 | 3.0 | 0.00 | 0.00 | 0.00 | 16 | 1012.5 |
| 20260904023017 | 76 | 265 | 0.0 | 0.0 | 0.00 | 0.00 | 0.00 | 16 | 1012.5 |
| 20260904022517 | 76 | 264 | 0.0 | 2.0 | 0.00 | 0.00 | 0.00 | 16 | 1012.3 |
| 20260904022017 | 76 | 264 | 0.0 | 1.0 | 0.00 | 0.00 | 0.00 | 16 | 1012.4 |
| 20260904021517 | 77 | 264 | 0.0 | 2.0 | 0.00 | 0.00 | 0.00 | 16 | 1012.4 |
| 20260904021017 | 77 | 264 | 0.0 | 3.0 | 0.00 | 0.00 | 0.00 | 16 | 1012.4 |
| 20260904020517 | 77 | 265 | 1.0 | 2.0 | 0.00 | 0.00 | 0.00 | 16 | 1012.4 |
| 20260904020017 | 77 | 269 | 1.0 | 4.0 | 0.00 | 0.00 | 0.00 | 15 | 1012.4 |
| 20260904015517 | 77 | 268 | 1.0 | 6.0 | 0.00 | 0.00 | 0.00 | 15 | 1012.4 |
| 20260904015017 | 77 | 283 | 0.0 | 4.0 | 0.00 | 0.00 | 0.00 | 15 | 1012.4 |
| 20260904014517 | 78 | 287 | 1.0 | 5.0 | 0.00 | 0.00 | 0.00 | 15 | 1012.5 |
| 20260904014017 | 78 | 289 | 1.0 | 9.0 | 0.00 | 0.00 | 0.00 | 15 | 1012.5 |
| 20260904013517 | 78 | 246 | 0.0 | 4.0 | 0.00 | 0.00 | 0.00 | 15 | 1012.4 |
| 20260904013017 | 78 | 236 | 1.0 | 4.0 | 0.00 | 0.00 | 0.00 | 15 | 1012.5 |
| 20260904012517 | 78 | 228 | 1.0 | 8.0 | 0.00 | 0.00 | 0.00 | 15 | 1012.4 |
| 20260904012017 | 78 | 261 | 1.0 | 5.0 | 0.00 | 0.00 | 0.00 | 16 | 1012.5 |
| 20260904011517 | 79 | 253 | 1.0 | 7.0 | 0.00 | 0.00 | 0.00 | 15 | 1012.6 |
| 20260904011017 | 79 | 257 | 1.0 | 8.0 | 0.00 | 0.00 | 0.00 | 15 | 1012.5 |
| 20260904010517 | 79 | 256 | 1.0 | 5.0 | 0.00 | 0.00 | 0.00 | 15 | 1012.6 |
| 20260904010017 | 79 | 273 | 2.0 | 13.0 | 0.00 | 0.00 | 0.00 | 15 | 1012.7 |
| 20260904005517 | 79 | 211 | 1.0 | 7.0 | 0.00 | 0.00 | 0.00 | 15 | 1012.7 |
| 20260904005017 | 79 | 257 | 1.0 | 4.0 | 0.00 | 0.00 | 0.00 | 15 | 1012.8 |
| 20260904004517 | 79 | 261 | 1.0 | 4.0 | 0.00 | 0.00 | 0.00 | 15 | 1012.8 |
| 20260904004017 | 79 | 260 | 1.0 | 6.0 | 0.00 | 0.00 | 0.00 | 15 | 1012.8 |
| 20260904003517 | 79 | 258 | 1.0 | 8.0 | 0.00 | 0.00 | 0.00 | 15 | 1012.8 |
| 20260904003017 | 79 | 260 | 1.0 | 11.0 | 0.00 | 0.00 | 0.00 | 15 | 1012.7 |
| 20260904002517 | 80 | 278 | 1.0 | 8.0 | 0.00 | 0.00 | 0.00 | 15 | 1013.0 |
| 20260904002017 | 80 | 223 | 1.0 | 7.0 | 0.00 | 0.00 | 0.00 | 15 | 1012.8 |
| 20260904001517 | 80 | 236 | 1.0 | 6.0 | 0.00 | 0.00 | 0.00 | 15 | 1012.7 |
| 20260904001017 | 81 | 257 | 1.0 | 8.0 | 0.00 | 0.00 | 0.00 | 16 | 1012.8 |
| 20260904000517 | 81 | 257 | 2.0 | 6.0 | 0.00 | 0.00 | 0.00 | 15 | 1012.7 |
| 20260904000017 | 81 | 256 | 1.0 | 5.0 | 0.00 | 0.00 | 0.00 | 15 | 1012.8 |
| 20260903235517 | 81 | 244 | 1.0 | 8.0 | 0.00 | 0.00 | 0.00 | 16 | 1012.7 |
| 20260903235017 | 81 | 246 | 1.0 | 6.0 | 0.00 | 0.00 | 0.00 | 16 | 1012.7 |
| 20260903234517 | 82 | 273 | 2.0 | 6.0 | 0.00 | 0.00 | 0.00 | 15 | 1012.8 |
| 20260903234017 | 82 | 256 | 2.0 | 8.0 | 0.00 | 0.00 | 0.00 | 15 | 1013.0 |
| 20260903233517 | 82 | 212 | 2.0 | 7.0 | 0.00 | 0.00 | 0.00 | 15 | 1013.0 |
| 20260903233017 | 82 | 213 | 2.0 | 7.0 | 0.00 | 0.00 | 0.00 | 15 | 1013.1 |
| 20260903232517 | 82 | 229 | 2.0 | 7.0 | 0.00 | 0.00 | 0.00 | 15 | 1013.0 |
| 20260903232017 | 82 | 196 | 2.0 | 10.0 | 0.00 | 0.00 | 0.00 | 15 | 1013.1 |
| 20260903231517 | 82 | 236 | 1.0 | 5.0 | 0.00 | 0.00 | 0.00 | 15 | 1013.1 |
| 20260903231017 | 82 | 238 | 1.0 | 5.0 | 0.00 | 0.00 | 0.00 | 15 | 1013.1 |
| 20260903230517 | 82 | 247 | 1.0 | 14.0 | 0.00 | 0.00 | 0.00 | 15 | 1013.3 |
| 20260903230017 | 82 | 291 | 2.0 | 8.0 | 0.00 | 0.00 | 0.00 | 15 | 1013.5 |
| 20260903225517 | 82 | 166 | 2.0 | 6.0 | 0.00 | 0.00 | 0.00 | 15 | 1013.4 |
| 20260903225017 | 82 | 220 | 1.0 | 9.0 | 0.00 | 0.00 | 0.00 | 14 | 1013.4 |
| 20260903224517 | 82 | 230 | 2.0 | 6.0 | 0.00 | 0.00 | 0.00 | 14 | 1013.6 |
| 20260903224017 | 82 | 264 | 2.0 | 8.0 | 0.00 | 0.00 | 0.00 | 14 | 1013.7 |
| 20260903223517 | 82 | 289 | 2.0 | 6.0 | 0.00 | 0.00 | 0.00 | 14 | 1013.7 |
| 20260903223017 | 82 | 296 | 2.0 | 10.0 | 0.00 | 0.00 | 0.00 | 13 | 1013.9 |
| 20260903222517 | 82 | 271 | 2.0 | 9.0 | 0.00 | 0.00 | 0.00 | 15 | 1013.8 |
| 20260903222017 | 82 | 210 | 2.0 | 7.0 | 0.00 | 0.00 | 0.00 | 14 | 1014.0 |
| 20260903221517 | 82 | 265 | 2.0 | 7.0 | 0.00 | 0.00 | 0.00 | 14 | 1014.1 |
| 20260903221017 | 82 | 217 | 2.0 | 9.0 | 0.00 | 0.00 | 0.00 | 13 | 1014.1 |
| 20260903220517 | 82 | 230 | 1.0 | 6.0 | 0.00 | 0.00 | 0.00 | 15 | 1014.1 |
| 20260903220017 | 82 | 213 | 1.0 | 4.0 | 0.00 | 0.00 | 0.00 | 14 | 1014.2 |
| 20260903215517 | 82 | 214 | 1.0 | 5.0 | 0.00 | 0.00 | 0.00 | 14 | 1014.2 |
| 20260903215017 | 82 | 219 | 1.0 | 5.0 | 0.00 | 0.00 | 0.00 | 14 | 1014.3 |
| 20260903214517 | 82 | 231 | 2.0 | 7.0 | 0.00 | 0.00 | 0.00 | 15 | 1014.3 |
| 20260903214017 | 82 | 250 | 3.0 | 8.0 | 0.00 | 0.00 | 0.00 | 14 | 1014.4 |
| 20260903213517 | 82 | 223 | 3.0 | 8.0 | 0.00 | 0.00 | 0.00 | 14 | 1014.3 |
| 20260903213017 | 82 | 229 | 3.0 | 7.0 | 0.00 | 0.00 | 0.00 | 13 | 1014.5 |
| 20260903212517 | 82 | 208 | 2.0 | 5.0 | 0.00 | 0.00 | 0.00 | 13 | 1014.4 |
| 20260903212017 | 81 | 267 | 1.0 | 8.0 | 0.00 | 0.00 | 0.00 | 15 | 1014.5 |
| 20260903211517 | 81 | 268 | 2.0 | 8.0 | 0.00 | 0.00 | 0.00 | 14 | 1014.5 |
| 20260903211017 | 81 | 223 | 2.0 | 14.0 | 0.00 | 0.00 | 0.00 | 14 | 1014.7 |
| 20260903210517 | 81 | 275 | 2.0 | 6.0 | 0.00 | 0.00 | 0.00 | 15 | 1014.7 |
| 20260903210017 | 81 | 211 | 4.0 | 10.0 | 0.00 | 0.00 | 0.00 | 14 | 1014.9 |
| 20260903205517 | 81 | 207 | 2.0 | 9.0 | 0.00 | 0.00 | 0.00 | 14 | 1015.0 |
| 20260903205017 | 81 | 194 | 1.0 | 4.0 | 0.00 | 0.00 | 0.00 | 16 | 1014.9 |
| 20260903204517 | 81 | 207 | 1.0 | 7.0 | 0.00 | 0.00 | 0.00 | 15 | 1015.1 |
| 20260903204017 | 81 | 221 | 1.0 | 8.0 | 0.00 | 0.00 | 0.00 | 15 | 1015.1 |
| 20260903203517 | 81 | 246 | 1.0 | 12.0 | 0.00 | 0.00 | 0.00 | 15 | 1015.2 |
| 20260903203017 | 81 | 214 | 2.0 | 5.0 | 0.00 | 0.00 | 0.00 | 15 | 1015.3 |
| 20260903202517 | 81 | 243 | 2.0 | 9.0 | 0.00 | 0.00 | 0.00 | 15 | 1015.4 |
| 20260903202017 | 81 | 217 | 1.0 | 8.0 | 0.00 | 0.00 | 0.00 | 16 | 1015.6 |
| 20260903201517 | 80 | 208 | 0.0 | 4.0 | 0.00 | 0.00 | 0.00 | 17 | 1015.6 |
| 20260903201017 | 80 | 209 | 0.0 | 4.0 | 0.00 | 0.00 | 0.00 | 15 | 1015.6 |
| 20260903200517 | 80 | 223 | 1.0 | 8.0 | 0.00 | 0.00 | 0.00 | 15 | 1015.7 |
| 20260903200017 | 80 | 258 | 2.0 | 6.0 | 0.00 | 0.00 | 0.00 | 16 | 1015.8 |
| 20260903195517 | 80 | 229 | 2.0 | 6.0 | 0.00 | 0.00 | 0.00 | 15 | 1015.9 |
| 20260903195017 | 80 | 217 | 3.0 | 7.0 | 0.00 | 0.00 | 0.00 | 16 | 1015.9 |
| 20260903194517 | 80 | 211 | 1.0 | 10.0 | 0.00 | 0.00 | 0.00 | 16 | 1015.8 |
| 20260903194017 | 80 | 263 | 0.0 | 2.0 | 0.00 | 0.00 | 0.00 | 17 | 1016.0 |
| 20260903193517 | 79 | 263 | 2.0 | 7.0 | 0.00 | 0.00 | 0.00 | 16 | 1016.0 |
| 20260903193017 | 79 | 270 | 2.0 | 8.0 | 0.00 | 0.00 | 0.00 | 15 | 1016.2 |
| 20260903192517 | 80 | 184 | 2.0 | 8.0 | 0.00 | 0.00 | 0.00 | 15 | 1016.3 |
| 20260903192017 | 79 | 174 | 1.0 | 7.0 | 0.00 | 0.00 | 0.00 | 16 | 1016.3 |
| 20260903191517 | 79 | 261 | 1.0 | 4.0 | 0.00 | 0.00 | 0.00 | 17 | 1016.4 |
| 20260903191017 | 79 | 271 | 1.0 | 6.0 | 0.00 | 0.00 | 0.00 | 17 | 1016.5 |
| 20260903190517 | 79 | 257 | 1.0 | 6.0 | 0.00 | 0.00 | 0.00 | 17 | 1016.5 |
| 20260903190017 | 79 | 277 | 1.0 | 6.0 | 0.00 | 0.00 | 0.00 | 17 | 1016.7 |
| 20260903185518 | 79 | 213 | 1.0 | 11.0 | 0.00 | 0.00 | 0.00 | 16 | 1016.7 |
| 20260903185017 | 79 | 220 | 1.0 | 8.0 | 0.00 | 0.00 | 0.00 | 17 | 1016.7 |
| 20260903184517 | 78 | 228 | 1.0 | 6.0 | 0.00 | 0.00 | 0.00 | 17 | 1016.8 |
| 20260903184017 | 78 | 252 | 1.0 | 5.0 | 0.00 | 0.00 | 0.00 | 16 | 1016.9 |
| 20260903183517 | 78 | 263 | 1.0 | 5.0 | 0.00 | 0.00 | 0.00 | 17 | 1016.9 |
| 20260903183017 | 78 | 276 | 2.0 | 8.0 | 0.00 | 0.00 | 0.00 | 16 | 1016.8 |
| 20260903182517 | 77 | 231 | 2.0 | 6.0 | 0.00 | 0.00 | 0.00 | 16 | 1017.3 |
| 20260903182017 | 77 | 210 | 3.0 | 8.0 | 0.00 | 0.00 | 0.00 | 18 | 1017.0 |
| 20260903181517 | 77 | 220 | 3.0 | 11.0 | 0.00 | 0.00 | 0.00 | 17 | 1017.0 |
| 20260903181018 | 77 | 211 | 2.0 | 6.0 | 0.00 | 0.00 | 0.00 | 18 | 1017.3 |
| 20260903180518 | 77 | 198 | 2.0 | 8.0 | 0.00 | 0.00 | 0.00 | 17 | 1017.3 |
| 20260903180017 | 77 | 195 | 1.0 | 6.0 | 0.00 | 0.00 | 0.00 | 17 | 1017.3 |
| 20260903175518 | 76 | 200 | 1.0 | 4.0 | 0.00 | 0.00 | 0.00 | 17 | 1017.3 |
| 20260903175017 | 76 | 192 | 2.0 | 11.0 | 0.00 | 0.00 | 0.00 | 18 | 1017.4 |
| 20260903174518 | 76 | 202 | 2.0 | 5.0 | 0.00 | 0.00 | 0.00 | 19 | 1017.4 |
| 20260903174017 | 76 | 196 | 2.0 | 8.0 | 0.00 | 0.00 | 0.00 | 16 | 1017.4 |
| 20260903173518 | 76 | 203 | 2.0 | 9.0 | 0.00 | 0.00 | 0.00 | 18 | 1017.5 |
| 20260903173018 | 76 | 212 | 2.0 | 7.0 | 0.00 | 0.00 | 0.00 | 16 | 1017.4 |
| 20260903172518 | 75 | 223 | 2.0 | 7.0 | 0.00 | 0.00 | 0.00 | 17 | 1017.4 |
| 20260903172018 | 75 | 224 | 1.0 | 6.0 | 0.00 | 0.00 | 0.00 | 19 | 1017.3 |
| 20260903171518 | 75 | 225 | 2.0 | 6.0 | 0.00 | 0.00 | 0.00 | 17 | 1017.4 |
| 20260903171018 | 75 | 220 | 1.0 | 8.0 | 0.00 | 0.00 | 0.00 | 20 | 1017.4 |
| 20260903170518 | 74 | 224 | 3.0 | 9.0 | 0.00 | 0.00 | 0.00 | 18 | 1017.6 |
| 20260903170018 | 74 | 250 | 3.0 | 9.0 | 0.00 | 0.00 | 0.00 | 18 | 1017.5 |
| 20260903165518 | 74 | 223 | 2.0 | 6.0 | 0.00 | 0.00 | 0.00 | 19 | 1017.5 |
| 20260903165018 | 74 | 205 | 2.0 | 7.0 | 0.00 | 0.00 | 0.00 | 18 | 1017.5 |
| 20260903164518 | 74 | 224 | 2.0 | 8.0 | 0.00 | 0.00 | 0.00 | 18 | 1017.4 |
| 20260903164018 | 73 | 253 | 2.0 | 6.0 | 0.00 | 0.00 | 0.00 | 19 | 1017.5 |
| 20260903163518 | 73 | 281 | 3.0 | 7.0 | 0.00 | 0.00 | 0.00 | 20 | 1017.5 |
| 20260903163018 | 73 | 221 | 3.0 | 7.0 | 0.00 | 0.00 | 0.00 | 18 | 1017.5 |
| 20260903162518 | 72 | 222 | 2.0 | 5.0 | 0.00 | 0.00 | 0.00 | 19 | 1017.5 |
| 20260903162018 | 72 | 191 | 1.0 | 6.0 | 0.00 | 0.00 | 0.00 | 20 | 1017.6 |
| 20260903161518 | 71 | 215 | 2.0 | 5.0 | 0.00 | 0.00 | 0.00 | 20 | 1017.5 |
| 20260903161018 | 71 | 202 | 2.0 | 5.0 | 0.00 | 0.00 | 0.00 | 20 | 1017.5 |
| 20260903160518 | 71 | 272 | 2.0 | 8.0 | 0.00 | 0.00 | 0.00 | 20 | 1017.6 |
| 20260903160018 | 71 | 246 | 2.0 | 6.0 | 0.00 | 0.00 | 0.00 | 21 | 1017.5 |
| 20260903155518 | 71 | 255 | 2.0 | 5.0 | 0.00 | 0.00 | 0.00 | 19 | 1017.6 |
| 20260903155018 | 70 | 201 | 1.0 | 5.0 | 0.00 | 0.00 | 0.00 | 19 | 1017.6 |
| 20260903154518 | 70 | 209 | 1.0 | 5.0 | 0.00 | 0.00 | 0.00 | 19 | 1017.5 |
| 20260903154018 | 70 | 217 | 2.0 | 4.0 | 0.00 | 0.00 | 0.00 | 19 | 1017.5 |
| 20260903153518 | 70 | 214 | 2.0 | 6.0 | 0.00 | 0.00 | 0.00 | 19 | 1017.7 |
| 20260903153018 | 70 | 223 | 1.0 | 6.0 | 0.00 | 0.00 | 0.00 | 19 | 1017.8 |
| 20260903152518 | 70 | 281 | 2.0 | 4.0 | 0.00 | 0.00 | 0.00 | 18 | 1017.7 |
| 20260903152018 | 70 | 202 | 2.0 | 6.0 | 0.00 | 0.00 | 0.00 | 19 | 1017.9 |
| 20260903151518 | 69 | 220 | 2.0 | 6.0 | 0.00 | 0.00 | 0.00 | 18 | 1017.9 |
| 20260903151018 | 69 | 225 | 2.0 | 6.0 | 0.00 | 0.00 | 0.00 | 19 | 1017.9 |
| 20260903150518 | 69 | 228 | 2.0 | 5.0 | 0.00 | 0.00 | 0.00 | 19 | 1017.9 |
| 20260903150018 | 69 | 228 | 2.0 | 5.0 | 0.00 | 0.00 | 0.00 | 19 | 1017.9 |
| 20260903145518 | 69 | 230 | 1.0 | 3.0 | 0.00 | 0.00 | 0.00 | 19 | 1017.8 |
| 20260903145018 | 69 | 232 | 1.0 | 7.0 | 0.00 | 0.00 | 0.00 | 19 | 1017.9 |
| 20260903144518 | 69 | 219 | 2.0 | 5.0 | 0.00 | 0.00 | 0.00 | 19 | 1017.8 |
| 20260903144018 | 68 | 219 | 2.0 | 6.0 | 0.00 | 0.00 | 0.00 | 19 | 1017.8 |
| 20260903143518 | 68 | 220 | 2.0 | 7.0 | 0.00 | 0.00 | 0.00 | 18 | 1017.8 |
| 20260903143018 | 68 | 228 | 2.0 | 6.0 | 0.00 | 0.00 | 0.00 | 19 | 1017.8 |
| 20260903142518 | 68 | 236 | 2.0 | 6.0 | 0.00 | 0.00 | 0.00 | 19 | 1017.8 |
| 20260903142018 | 67 | 202 | 2.0 | 7.0 | 0.00 | 0.00 | 0.00 | 19 | 1017.7 |
| 20260903141518 | 67 | 197 | 2.0 | 10.0 | 0.00 | 0.00 | 0.00 | 19 | 1017.7 |
| 20260903141018 | 67 | 232 | 2.0 | 6.0 | 0.00 | 0.00 | 0.00 | 19 | 1017.7 |
| 20260903140518 | 67 | 227 | 2.0 | 6.0 | 0.00 | 0.00 | 0.00 | 19 | 1017.7 |
| 20260903140018 | 67 | 240 | 2.0 | 7.0 | 0.00 | 0.00 | 0.00 | 19 | 1017.8 |
| 20260903135518 | 66 | 230 | 2.0 | 5.0 | 0.00 | 0.00 | 0.00 | 19 | 1017.8 |
| 20260903135018 | 66 | 236 | 2.0 | 7.0 | 0.00 | 0.00 | 0.00 | 19 | 1017.8 |
| 20260903134518 | 66 | 245 | 1.0 | 6.0 | 0.00 | 0.00 | 0.00 | 19 | 1017.7 |
| 20260903134018 | 65 | 250 | 1.0 | 5.0 | 0.00 | 0.00 | 0.00 | 19 | 1017.7 |
| 20260903133518 | 65 | 227 | 1.0 | 5.0 | 0.00 | 0.00 | 0.00 | 19 | 1017.6 |
| 20260903133018 | 64 | 226 | 1.0 | 4.0 | 0.00 | 0.00 | 0.00 | 19 | 1017.6 |
| 20260903132518 | 64 | 229 | 1.0 | 5.0 | 0.00 | 0.00 | 0.00 | 19 | 1017.5 |
| 20260903132018 | 64 | 225 | 1.0 | 8.0 | 0.00 | 0.00 | 0.00 | 20 | 1017.4 |
| 20260903131518 | 64 | 219 | 1.0 | 3.0 | 0.00 | 0.00 | 0.00 | 20 | 1017.3 |
| 20260903131018 | 64 | 219 | 1.0 | 4.0 | 0.00 | 0.00 | 0.00 | 20 | 1017.2 |
| 20260903130518 | 64 | 209 | 2.0 | 4.0 | 0.00 | 0.00 | 0.00 | 20 | 1017.1 |
| 20260903130018 | 64 | 212 | 2.0 | 5.0 | 0.00 | 0.00 | 0.00 | 20 | 1017.0 |
| 20260903125518 | 64 | 214 | 2.0 | 4.0 | 0.00 | 0.00 | 0.00 | 19 | 1017.0 |
| 20260903125018 | 64 | 215 | 2.0 | 5.0 | 0.00 | 0.00 | 0.00 | 19 | 1016.9 |
| 20260903124518 | 64 | 225 | 2.0 | 6.0 | 0.00 | 0.00 | 0.00 | 19 | 1016.9 |
| 20260903124018 | 64 | 220 | 2.0 | 4.0 | 0.00 | 0.00 | 0.00 | 20 | 1016.9 |
| 20260903123518 | 64 | 198 | 2.0 | 7.0 | 0.00 | 0.00 | 0.00 | 20 | 1016.9 |
| 20260903123018 | 64 | 220 | 2.0 | 5.0 | 0.00 | 0.00 | 0.00 | 21 | 1016.9 |
| 20260903122518 | 64 | 187 | 2.0 | 6.0 | 0.00 | 0.00 | 0.00 | 22 | 1016.9 |
| 20260903122018 | 64 | 205 | 2.0 | 5.0 | 0.00 | 0.00 | 0.00 | 21 | 1016.8 |
| 20260903121518 | 64 | 213 | 2.0 | 8.0 | 0.00 | 0.00 | 0.00 | 22 | 1016.8 |
| 20260903121018 | 64 | 205 | 1.0 | 6.0 | 0.00 | 0.00 | 0.00 | 20 | 1016.7 |
| 20260903120518 | 65 | 190 | 1.0 | 7.0 | 0.00 | 0.00 | 0.00 | 22 | 1016.7 |
| 20260903120018 | 65 | 203 | 1.0 | 5.0 | 0.00 | 0.00 | 0.00 | 19 | 1016.7 |
| 20260903115518 | 65 | 207 | 1.0 | 3.0 | 0.00 | 0.00 | 0.00 | 19 | 1016.7 |
| 20260903115018 | 65 | 207 | 1.0 | 5.0 | 0.00 | 0.00 | 0.00 | 18 | 1016.6 |
| 20260903114518 | 65 | 198 | 1.0 | 1.0 | 0.00 | 0.00 | 0.00 | 19 | 1016.6 |
| 20260903114018 | 65 | 207 | 1.0 | 7.0 | 0.00 | 0.00 | 0.00 | 18 | 1016.5 |
| 20260903113518 | 65 | 208 | 1.0 | 4.0 | 0.00 | 0.00 | 0.00 | 19 | 1016.6 |
| 20260903113018 | 65 | 211 | 1.0 | 5.0 | 0.00 | 0.00 | 0.00 | 19 | 1016.5 |
| 20260903112518 | 65 | 213 | 1.0 | 7.0 | 0.00 | 0.00 | 0.00 | 18 | 1016.6 |
| 20260903112018 | 66 | 200 | 1.0 | 4.0 | 0.00 | 0.00 | 0.00 | 20 | 1016.7 |
| 20260903111518 | 66 | 203 | 1.0 | 4.0 | 0.00 | 0.00 | 0.00 | 18 | 1016.6 |
| 20260903111018 | 66 | 215 | 1.0 | 4.0 | 0.00 | 0.00 | 0.00 | 19 | 1016.6 |
| 20260903110518 | 66 | 211 | 1.0 | 6.0 | 0.00 | 0.00 | 0.00 | 17 | 1016.6 |
| 20260903110018 | 66 | 211 | 1.0 | 3.0 | 0.00 | 0.00 | 0.00 | 18 | 1016.6 |
| 20260903105518 | 66 | 213 | 1.0 | 4.0 | 0.00 | 0.00 | 0.00 | 18 | 1016.5 |
| 20260903105018 | 66 | 213 | 1.0 | 3.0 | 0.00 | 0.00 | 0.00 | 19 | 1016.5 |
| 20260903104518 | 66 | 214 | 1.0 | 5.0 | 0.00 | 0.00 | 0.00 | 19 | 1016.4 |
| 20260903104018 | 66 | 207 | 1.0 | 5.0 | 0.00 | 0.00 | 0.00 | 20 | 1016.4 |
| 20260903103518 | 66 | 202 | 1.0 | 4.0 | 0.00 | 0.00 | 0.00 | 18 | 1016.3 |
| 20260903103018 | 66 | 227 | 2.0 | 3.0 | 0.00 | 0.00 | 0.00 | 18 | 1016.4 |
| 20260903102518 | 66 | 213 | 1.0 | 4.0 | 0.00 | 0.00 | 0.00 | 18 | 1016.3 |
| 20260903102018 | 66 | 189 | 1.0 | 4.0 | 0.00 | 0.00 | 0.00 | 19 | 1016.3 |
| 20260903101518 | 65 | 199 | 1.0 | 7.0 | 0.00 | 0.00 | 0.00 | 19 | 1016.3 |
| 20260903101018 | 65 | 213 | 1.0 | 7.0 | 0.00 | 0.00 | 0.00 | 20 | 1016.4 |
| 20260903100518 | 64 | 215 | 1.0 | 5.0 | 0.00 | 0.00 | 0.00 | 20 | 1016.3 |
| 20260903100018 | 64 | 232 | 1.0 | 10.0 | 0.00 | 0.00 | 0.00 | 22 | 1016.2 |
| 20260903095518 | 64 | 268 | 1.0 | 5.0 | 0.00 | 0.00 | 0.00 | 26 | 1016.2 |
| 20260903095018 | 64 | 186 | 1.0 | 8.0 | 0.00 | 0.00 | 0.00 | 25 | 1016.2 |
| 20260903094518 | 65 | 146 | 1.0 | 5.0 | 0.00 | 0.00 | 0.00 | 27 | 1016.1 |
| 20260903094018 | 65 | 212 | 1.0 | 6.0 | 0.00 | 0.00 | 0.00 | 23 | 1016.1 |
| 20260903093518 | 66 | 203 | 1.0 | 5.0 | 0.00 | 0.00 | 0.00 | 19 | 1016.0 |
| 20260903093018 | 66 | 222 | 1.0 | 5.0 | 0.00 | 0.00 | 0.00 | 19 | 1016.1 |
| 20260903092518 | 66 | 257 | 0.0 | 3.0 | 0.00 | 0.00 | 0.00 | 18 | 1016.1 |
| 20260903092018 | 65 | 259 | 0.0 | 4.0 | 0.00 | 0.00 | 0.00 | 19 | 1016.0 |
| 20260903091518 | 64 | 261 | 0.0 | 4.0 | 0.00 | 0.00 | 0.00 | 21 | 1016.0 |
| 20260903091019 | 63 | 262 | 0.0 | 8.0 | 0.00 | 0.00 | 0.00 | 21 | 1016.0 |
| 20260903090518 | 63 | 262 | 0.0 | 5.0 | 0.00 | 0.00 | 0.00 | 24 | 1016.1 |
| 20260903090018 | 63 | 256 | 0.0 | 0.0 | 0.00 | 0.00 | 0.00 | 30 | 1016.1 |
| 20260903085518 | 63 | 256 | 0.0 | 0.0 | 0.00 | 0.00 | 0.00 | 28 | 1016.1 |
| 20260903085018 | 63 | 256 | 0.0 | 0.0 | 0.00 | 0.00 | 0.00 | 31 | 1016.1 |
| 20260903084518 | 64 | 256 | 0.0 | 0.0 | 0.00 | 0.00 | 0.00 | 30 | 1016.0 |
| 20260903084018 | 65 | 256 | 0.0 | 0.0 | 0.00 | 0.00 | 0.00 | 28 | 1016.1 |
| 20260903083518 | 65 | 256 | 0.0 | 0.0 | 0.00 | 0.00 | 0.00 | 29 | 1016.1 |
| 20260903083018 | 66 | 256 | 0.0 | 0.0 | 0.00 | 0.00 | 0.00 | 28 | 1016.1 |
| 20260903082518 | 67 | 256 | 0.0 | 0.0 | 0.00 | 0.00 | 0.00 | 24 | 1016.1 |
| 20260903082018 | 67 | 256 | 0.0 | 0.0 | 0.00 | 0.00 | 0.00 | 18 | 1016.1 |
| 20260903081518 | 67 | 256 | 0.0 | 1.0 | 0.00 | 0.00 | 0.00 | 19 | 1016.1 |
| 20260903081018 | 67 | 256 | 0.0 | 0.0 | 0.00 | 0.00 | 0.00 | 18 | 1016.0 |
| 20260903080518 | 67 | 256 | 0.0 | 0.0 | 0.00 | 0.00 | 0.00 | 18 | 1016.1 |
| 20260903080018 | 67 | 256 | 0.0 | 0.0 | 0.00 | 0.00 | 0.00 | 19 | 1016.0 |
| 20260903075518 | 67 | 256 | 0.0 | 0.0 | 0.00 | 0.00 | 0.00 | 18 | 1016.0 |
| 20260903075018 | 67 | 256 | 0.0 | 1.0 | 0.00 | 0.00 | 0.00 | 19 | 1015.9 |
| 20260903074518 | 67 | 256 | 0.0 | 3.0 | 0.00 | 0.00 | 0.00 | 19 | 1015.9 |
| 20260903074018 | 67 | 256 | 0.0 | 0.0 | 0.00 | 0.00 | 0.00 | 19 | 1016.0 |
| 20260903073518 | 66 | 256 | 0.0 | 1.0 | 0.00 | 0.00 | 0.00 | 19 | 1015.9 |
| 20260903073018 | 66 | 256 | 0.0 | 0.0 | 0.00 | 0.00 | 0.00 | 19 | 1015.8 |
| 20260903072519 | 66 | 256 | 0.0 | 3.0 | 0.00 | 0.00 | 0.00 | 20 | 1015.8 |
| 20260903072019 | 66 | 256 | 0.0 | 0.0 | 0.00 | 0.00 | 0.00 | 21 | 1015.9 |
| 20260903071519 | 66 | 256 | 0.0 | 0.0 | 0.00 | 0.00 | 0.00 | 21 | 1015.7 |
| 20260903071019 | 66 | 256 | 0.0 | 0.0 | 0.00 | 0.00 | 0.00 | 22 | 1015.8 |
| 20260903070519 | 66 | 256 | 0.0 | 0.0 | 0.00 | 0.00 | 0.00 | 23 | 1015.8 |
| 20260903070019 | 65 | 256 | 0.0 | 0.0 | 0.00 | 0.00 | 0.00 | 24 | 1015.7 |
| 20260903065519 | 65 | 256 | 0.0 | 0.0 | 0.00 | 0.00 | 0.00 | 25 | 1015.6 |
| 20260903065019 | 65 | 256 | 0.0 | 0.0 | 0.00 | 0.00 | 0.00 | 24 | 1015.6 |
| 20260903064519 | 65 | 256 | 0.0 | 0.0 | 0.00 | 0.00 | 0.00 | 26 | 1015.5 |
| 20260903064019 | 65 | 256 | 0.0 | 0.0 | 0.00 | 0.00 | 0.00 | 29 | 1015.5 |
| 20260903063519 | 65 | 256 | 0.0 | 0.0 | 0.00 | 0.00 | 0.00 | 26 | 1015.5 |
| 20260903063019 | 66 | 256 | 0.0 | 0.0 | 0.00 | 0.00 | 0.00 | 27 | 1015.4 |
| 20260903062519 | 66 | 256 | 0.0 | 0.0 | 0.00 | 0.00 | 0.00 | 28 | 1015.5 |
| 20260903062019 | 66 | 256 | 0.0 | 0.0 | 0.00 | 0.00 | 0.00 | 27 | 1015.4 |
| 20260903061519 | 66 | 256 | 0.0 | 0.0 | 0.00 | 0.00 | 0.00 | 27 | 1015.4 |
| 20260903061019 | 66 | 256 | 0.0 | 0.0 | 0.00 | 0.00 | 0.00 | 27 | 1015.4 |